FW4370 Weather Reports


Display with metric or nautical units.
time (UTC)temp
F
wind
direction
speed
MPH
gust
MPH
rain 1hr
in
rain 24hr
in
rain mn
in
humidity
%
barometer
mb
20260504044526 63 213 4.0 10.0 0.00 0.00 0.00 19 1004.8
20260504043028 64 226 8.0 15.0 0.00 0.00 0.00 18 1004.6
20260504041532 64 213 4.0 12.0 0.00 0.00 0.00 17 1004.5
20260504040021 64 243 5.0 12.0 0.00 0.00 0.00 16 1004.5
20260504034520 65 229 6.0 12.0 0.00 0.00 0.00 15 1004.2
20260504033019 65 233 7.0 13.0 0.00 0.00 0.00 14 1004.1
20260504031516 65 240 5.0 12.0 0.00 0.00 0.00 13 1003.9
20260504030014 65 257 2.0 9.0 0.00 0.00 0.00 13 1003.8
20260504024512 65 218 2.0 8.0 0.00 0.00 0.00 12 1003.8
20260504023009 66 215 6.0 13.0 0.00 0.00 0.00 12 1003.7
20260504021507 67 207 5.0 11.0 0.00 0.00 0.00 11 1003.5
20260504020005 68 203 6.0 13.0 0.00 0.00 0.00 11 1003.2
20260504014502 70 229 10.0 17.0 0.00 0.00 0.00 11 1003.0
20260504013058 71 259 11.0 20.0 0.00 0.00 0.00 11 1003.2
20260504011554 72 233 7.0 15.0 0.00 0.00 0.00 11 1002.9
20260504010054 73 221 5.0 15.0 0.00 0.00 0.00 11 1003.0
20260504004550 73 284 8.0 17.0 0.00 0.00 0.00 11 1003.1
20260504003046 73 238 10.0 20.0 0.00 0.00 0.00 11 1003.3
20260504001549 74 250 8.0 16.0 0.00 0.00 0.00 12 1003.2
20260504000037 75 237 7.0 15.0 0.00 0.00 0.00 12 1003.2
20260503234544 75 249 7.0 24.0 0.00 0.00 0.00 12 1003.5
20260503233035 75 149 8.0 19.0 0.00 0.00 0.00 13 1003.1
20260503231519 76 193 7.0 21.0 0.00 0.00 0.00 14 1003.3
20260503230014 76 226 5.0 18.0 0.00 0.00 0.00 14 1003.3
20260503224510 75 200 7.0 19.0 0.00 0.00 0.00 14 1003.4
20260503223008 74 173 7.0 17.0 0.00 0.00 0.00 14 1003.7
20260503221504 75 220 8.0 17.0 0.00 0.00 0.00 15 1003.8
20260503220002 75 233 8.0 18.0 0.00 0.00 0.00 15 1003.9
20260503214557 74 233 13.0 20.0 0.00 0.00 0.00 15 1004.3
20260503213057 75 198 8.0 17.0 0.00 0.00 0.00 15 1004.6
20260503211551 76 132 8.0 16.0 0.00 0.00 0.00 15 1004.7
20260503210048 77 226 9.0 18.0 0.00 0.00 0.00 15 1004.9
20260503204546 76 214 9.0 20.0 0.00 0.00 0.00 15 1004.9
20260503203053 77 233 8.0 17.0 0.00 0.00 0.00 16 1005.0
20260503201539 77 173 8.0 21.0 0.00 0.00 0.00 16 1005.4
20260503200036 76 146 6.0 19.0 0.00 0.00 0.00 17 1005.5
20260503194533 76 236 9.0 20.0 0.00 0.00 0.00 18 1005.7
20260503193031 76 175 10.0 19.0 0.00 0.00 0.00 20 1005.9
20260503191533 76 219 10.0 19.0 0.00 0.00 0.00 21 1006.1
20260503190024 75 101 5.0 12.0 0.00 0.00 0.00 22 1006.0
20260503184520 74 143 6.0 12.0 0.00 0.00 0.00 23 1006.2
20260503183018 75 212 5.0 16.0 0.00 0.00 0.00 23 1006.4
20260503181514 72 123 8.0 20.0 0.00 0.00 0.00 23 1006.5
20260503180011 72 233 6.0 16.0 0.00 0.00 0.00 24 1006.6
20260503174509 74 141 9.0 16.0 0.00 0.00 0.00 24 1006.6
20260503173005 73 118 9.0 19.0 0.00 0.00 0.00 25 1007.0
20260503171502 73 129 7.0 16.0 0.00 0.00 0.00 25 1007.2
20260503081513 58 38 1.0 3.0 0.00 0.00 0.00 22 1009.4
20260503071615 59 58 0.0 2.0 0.00 0.00 0.00 21 1009.9
20260503060108 61 226 0.0 1.0 0.00 0.00 0.00 20 1009.8
20260503054557 60 219 0.0 0.0 0.00 0.00 0.00 19 1009.9
20260503053047 61 278 0.0 2.0 0.00 0.00 0.00 19 1009.8